星链-36214(STARLINK-36214)

导读

STARLINK-36214是美国SpaceX星链星座的卫星,于2025年12月15日发射。星链项目旨在构建全球卫星互联网星座,为全球提供高速宽带服务。该卫星将加入规模庞大的星链网络,进一步完善星座覆盖能力,提升偏远等地区的网络接入服务,也持续推动低轨卫星通信领域的发展进程。

基本信息
目录编号:
67129
目录名称:
STARLINK-36214
国际标识:
2025-299AD
轨道中心:
EARTH
卫星名称:
星链-36214
卫星全名:
星链-36214(STARLINK-36214)
卫星状态:
在轨 (已飞行180 天)
发射日期:
2025-12-15 UTC
国别 :
美国 (US)
星等 :
--
轨道信息
数据来源 国际轨道数据
星历时间: 2026-06-12T13:56:39+0800
1天前
查看轨道信息
半长轴: 6861.145km
偏心率: 0.0003163
轨道倾角: 43.011°
近地点辐角 265.379°
升交点赤经 355.322°
平近点角 94.671°
近地点: 480.837km
远地点: 485.179km
周期: 94.266分钟
每日圈数: 15.275938
详细信息
固有亮度:
5
最大亮度:
2.5
卫星平台:
Starlink V1.0
覆盖范围:
全球
运营商:
太空探索技术公司
运营商所在国:
美国
制造商(研发单位):
太空探索技术公司
制造商所在国:
美国
使用方式:
暂无
卫星简介
Starlink 计划是 SpaceX 推出的全球卫星互联网项目,通过发射低轨道卫星,为全球尤其是偏远地区提供高速、低延迟的互联网服务。自 2019 年起,Starlink 已部署数千颗卫星,旨在缩小全球数字鸿沟,推动互联网普及。该项目还为军事、航空等行业提供通信支持,带来广泛经济效益。
2D轨道图
3D轨道图
轨道高度分析图
轨道倾角分析图
轨道综合分析图
查看轨道综合分析图